Regional Weather Roundup
Issued by NWS

Home | Current Version | Previous Version | Text Only | Print | Product List | Glossary On
Versions: 1 2 3 4 5 6 7 8 9 10 11 12 13 14 15 16 17 18 19 20 21 22 23 24 25 26 27 28 29 30 31 32 33 34 35 36 37 38 39 40 41 42 43 44 45 46 47 48 49 50
000
ASUS46 KLOX 070713
RWRCA

SOUTHERN CALIFORNIA WEATHER ROUNDUP
NATIONAL WEATHER SERVICE OXNARD CALIFORNIA
1200 AM PDT TUE JUL 07 2015

NOTE: "FAIR" INDICATES FEW OR NO CLOUDS BELOW 12,000 FEET WITH NO
SIGNIFICANT WEATHER AND/OR OBSTRUCTIONS TO VISIBILITY.

  -  STATIONS PRECEEDED BY AN ASTERISK (*) ARE NOT NWS OR FAA
     STATIONS AND ARE NOT SUBJECT TO NWS AND FAA QUALITY CONTROL.

CAZ041-042-087-070800-
LA AND ORANGE COUNTY COASTAL AREAS


CITY           SKY/WX    TMP DP  RH WIND       PRES   REMARKS
L.A. DOWNTOWN  CLOUDY    65  59  81 CALM      30.01S
L.A. AIRPORT   CLOUDY    64  60  87 S5        30.01F
LONG BEACH     CLOUDY    67  60  78 S6        30.01S

CITY           SKY/WX    TMP DP  RH WIND       PRES   REMARKS
AVALON           N/A     64 N/A N/A S3          N/A
FULLERTON      CLOUDY    67  60  78 S3        30.00S
*GETTY CENTER    N/A     57  55  94 S2          N/A
HAWTHORNE      CLOUDY    66  59  78 CALM      30.01S
*LOS ALAMITOS  CLOUDY    65  61  87 SW6       30.01S
*REDONDO BEACH   N/A     65  60  82 CALM      30.01S
SANTA ANA      CLOUDY    65  59  81 SW5       30.01S
STA MONICA APT CLOUDY    61  59  93 CALM      30.02R
*STA MON PIER    N/A     64  60  88 SW2       30.01S
*UCLA            N/A     63  55  77 CALM      29.99R

$$

CAZ547-548-048-070800-
LA COUNTY VALLEYS AND INLAND EMPIRE


CITY           SKY/WX    TMP DP  RH WIND       PRES   REMARKS
BURBANK        CLOUDY    64  58  80 SE8       30.01R
VAN NUYS       CLOUDY    62  58  86 SE5       30.01R

CITY           SKY/WX    TMP DP  RH WIND       PRES   REMARKS
CORONA AIRPORT CLOUDY    60  57  89 CALM      30.02S
*CHATSWORTH      N/A     63  58  83 E1        29.99S
CHINO          PTCLDY    64  59  83 W7        30.02F
MARCH AFB      CLEAR     63  59  88 NW3       30.02S
*NORTHRIDGE      N/A     61  55  82 SE2         N/A
ONTARIO        PTCLDY    64  58  80 W6        30.01F
*PASADENA        N/A     64  61  88 NE1         N/A
RIVERSIDE        N/A    N/A N/A N/A MISG      30.01F
SAN BERNARDINO NOT AVBL
*WHITEMAN AP   NOT AVBL

$$

CAZ054-055-070800-
LA AND SAN BERNARDINO COUNTY MOUNTAINS


CITY           SKY/WX    TMP DP  RH WIND       PRES   REMARKS
*BIG BEAR AIRP SUNNY     50  45  81 CALM      30.29F
SANDBERG       CLEAR     69  54  58 N21G28    30.14F

$$

CAZ028-029-059-060-099-070800-
ANTELOPE VALLEY AND SURROUNDING AREAS


CITY           SKY/WX    TMP DP  RH WIND       PRES   REMARKS
LANCASTER      CLEAR     75  51  43 SW13      29.99S
PALMDALE       CLEAR     75  37  25 SW10      30.01S

CITY           SKY/WX    TMP DP  RH WIND       PRES   REMARKS
29 PALMS       CLEAR     85  55  35 VRB7      29.99R
BARSTOW/DAGGET CLEAR     85  45  24 SW15      29.93S
BISHOP         MOCLDY    71  46  40 NE5       30.10S
CHINA LAKE     PTCLDY    82  49  31 S14       29.93R
EDWARDS AFB    CLEAR     75  40  28 S10       29.97R
MOJAVE         FAIR      77  54  44 W23G30    29.99S
NEEDLES        CLEAR     91  54  28 N10       29.85F
VICTORVILLE    CLEAR     73  43  33 CALM      30.04R

$$

CAZ039-040-070800-
VENTURA AND SANTA BARBARA COUNTY COAST


CITY           SKY/WX    TMP DP  RH WIND       PRES   REMARKS
CAMARILLO      PTCLDY    62  56  80 NE3       29.99F
OXNARD AIRPORT CLEAR     63  58  83 CALM      29.99F
*POINT MUGU    CLEAR     62  57  83 NE3       30.00S
SBA APT/GOLETA CLEAR     64  59  83 CALM      29.98S
*SANTA BARBARA   N/A     64  58  81 W1        30.07R
*VENTURA         N/A     63  57  82 CALM      29.59F

$$

CAZ044-045-070800-
VENTURA COUNTY VALLEYS


CITY           SKY/WX    TMP DP  RH WIND       PRES   REMARKS
*SIMI VALLEY     N/A     60  56  87 CALM      29.95S
*OJAI            N/A     59  55  86 CALM      29.93S
*FILLMORE        N/A     60  54  79 SW3       29.90S

$$

CAZ053-070800-
VENTURA COUNTY MOUNTAINS


CITY           SKY/WX    TMP DP  RH WIND       PRES   REMARKS

$$

CAZ034-035-036-070800-
CENTRAL COAST AND SANTA YNEZ VALLEY


CITY           SKY/WX    TMP DP  RH WIND       PRES   REMARKS
SAN LUIS OBISP CLEAR     61  55  81 CALM      30.02F
SANTA MARIA    CLOUDY    62  59  90 NW6       30.03S

CITY           SKY/WX    TMP DP  RH WIND       PRES   REMARKS
*CAL POLY SLO    N/A     59  57  94 SE1G9       N/A
*LOMPOC        CLOUDY    61  55  82 W7        30.04S
*PISMO BEACH     N/A     61  58  91 CALM      30.03S
*SANTA YNEZ    FAIR      59  54  82 W3        30.03S

$$

CAZ037-038-051-070800-
SAN LUIS OBISPO COUNTY INTERIOR AND CUYAMA VALLEY


CITY           SKY/WX    TMP DP  RH WIND       PRES   REMARKS
*CUYAMA          N/A     66  55  67 W5        29.93R
PASO ROBLES    CLEAR     68  55  63 NW14G21   30.01S

$$

CAZ032-033-061-070800-
SOUTHERN DESERTS


CITY           SKY/WX    TMP DP  RH WIND       PRES   REMARKS
BLYTHE         CLEAR     95  46  18 SW7       29.80S HX  91
IMPERIAL       CLEAR     89  48  24 CALM      29.77S
PALM SPRINGS   CLEAR     87  58  37 NW10      29.84S
THERMAL        CLEAR     88  59  37 NW15      29.77S

$$

ELSEWHERE ACROSS THE WESTERN UNITED STATES AND MEXICO


CITY           SKY/WX    TMP DP  RH WIND       PRES   REMARKS
DENVER, CO     CLOUDY    59  52  77 SE10      30.27F HAZE
GRAND CANYON,  CLEAR     50  46  86 CALM      30.27F
HONOLULU, HI   PTCLDY    81  66  61 NE6       29.99S
KAHULUI, MAUI  PTCLDY    79  68  69 NE13      30.01R
LAKE TAHOE, CA PTCLDY    54  50  86 CALM      30.26R
LAS VEGAS, NV  CLOUDY    83  56  39 SW13      29.93S THUNDER
MAMMOTH LAKES, FAIR      55  48  76 W8        30.33S
MEXICO CITY, M PTCLDY    61  52  72 NW3       30.38F
PHOENIX, AZ    PTCLDY    95  55  26 NW7       29.84S HX  93
PORTLAND, OR   PTCLDY    66  57  72 N6        30.01R
RENO, NV       MOCLDY    70  49  47 SW7       30.15R
SALT LAKE CITY MOCLDY    74  55  51 S10       30.06R
SAN DIEGO, CA  CLOUDY    67  59  75 NW6       30.02F
SAN FRANCISCO, MOCLDY    63  57  81 W12       30.04S
SAN JOSE, CA   PTCLDY    64  57  78 NW8       30.04S
SEATTLE, WA    PTCLDY    64  53  67 SW6       30.02R
TIJUANA, MEX   CLOUDY    64  57  77 W7        30.04S

$$

STATION/POSITION TIME  TEMP    WIND        PRES    VSBY  WAVE
                       AIR SEA DIR/SP/G                  HT/PER
                 (UTC) (F)     (DEG/KT/KT) (MB)    (MI)  (FT/S)
POINT ARGUELLO B NOT AVBL
WEST SANTA BARBA 0650   60 59  310/ 14/ 16 1015.4S         3/14
POINT CONCEPTION NOT AVBL
EAST SANTA BARBA 0700   63 62  320/  6/  6 1015.8R
SANTA MONICA BAY 0650   64 68   90/  8/  8 1015.7F         3/ 5


USA.gov is the U.S. government's official web portal to all federal, state and local government web resources and services.